This is the latest recevied weather packets stored in our database for station/object IT9FBN-3. If no packets are shown the sender has not sent any weather packets the latest 10 day(s).
| Time | Temp. | Humidity | Pressure | Rain* | Wind** | Luminosity | Snow |
|---|---|---|---|---|---|---|---|
| 1778094602 | 18.89° C | 61% | 1012.3 hPa | 0 mm | - | - | - |
| 1778094303 | 18.89° C | 60% | 1012.2 hPa | 0 mm | - | - | - |
| 1778094002 | 18.89° C | 59% | 1012.2 hPa | 0 mm | - | - | - |
| 1778093702 | 18.89° C | 59% | 1012.3 hPa | 0 mm | - | - | - |
| 1778093402 | 18.89° C | 63% | 1012.3 hPa | 0 mm | - | - | - |
| 1778093103 | 18.89° C | 64% | 1011.9 hPa | 0 mm | - | - | - |
| 1778092802 | 18.89° C | 65% | 1011.9 hPa | 0 mm | - | - | - |
| 1778092502 | 18.89° C | 65% | 1011.9 hPa | 0 mm | - | - | - |
| 1778092203 | 18.89° C | 64% | 1011.9 hPa | 0 mm | - | - | - |
| 1778091903 | 19.44° C | 63% | 1012 hPa | 0 mm | - | - | - |
| 1778091603 | 19.44° C | 61% | 1012.1 hPa | 0 mm | - | - | - |
| 1778091302 | 20° C | 58% | 1012.4 hPa | 0 mm | - | - | - |
| 1778091003 | 20° C | 55% | 1012.5 hPa | 0 mm | - | - | - |
| 1778090703 | 20° C | 52% | 1012.5 hPa | 0 mm | - | - | - |
| 1778090403 | 20.56° C | 51% | 1012.2 hPa | 0 mm | - | - | - |
| 1778090102 | 20.56° C | 49% | 1012.1 hPa | 0 mm | - | - | - |
| 1778089803 | 20.56° C | 50% | 1012.1 hPa | 0 mm | - | - | - |
| 1778089503 | 20.56° C | 50% | 1012.2 hPa | 0 mm | - | - | - |
| 1778089203 | 20° C | 53% | 1012.2 hPa | 0 mm | - | - | - |
| 1778088903 | 20° C | 58% | 1012.3 hPa | 0 mm | - | - | - |
| 1778088603 | 20.56° C | 58% | 1012.6 hPa | 0 mm | - | - | - |
| 1778088303 | 21.11° C | 52% | 1012.8 hPa | 0 mm | - | - | - |
| 1778088003 | 21.11° C | 45% | 1012.7 hPa | 0 mm | - | - | - |
| 1778087703 | 21.11° C | 43% | 1012.7 hPa | 0 mm | - | - | - |
| 1778087403 | 20.56° C | 57% | 1012.6 hPa | 0 mm | - | - | - |
* Rain latest hour (hover to see other rain measurements)
** Current wind speed in m/s (hover to see current wind gust speed)